[[{"header":{"parameterUnit":"m.s-1","parameterCategory":1,"la1":30.2992,"la2":30.254,"lo1":-89.0895,"lo2":-89.0443,"dy":0.0025,"dx":0.0025,"nx":19,"ny":19,"refTime":"2026-05-01T03:00:00:Z","depth":0,"parameterNumber":2,"parameterNumberName":"U-component_of_WINDS"},"data":[0,0,0,-1.4795,-1.4796,-1.4871,-1.4871,-1.4982,-1.4983,0,0,0,0,0,0,0,0,0,0,0,-1.4783,-1.4784,-1.4795,-1.4797,-1.4871,-1.4871,-1.4982,-1.4983,0,0,0,0,0,0,0,0,0,0,0,-1.4782,-1.4783,-1.4785,-1.4797,-1.4871,-1.4871,-1.4982,-1.492,0,0,0,0,0,0,0,0,0,0,-1.4845,-1.4844,-1.4783,-1.4785,-1.4797,-1.4871,-1.4871,-1.4917,-1.4924,-1.4956,0,-1.4987,0,-1.4987,-1.4992,-1.4992,0,0,0,-1.4789,-1.4838,-1.4849,-1.4785,-1.4798,-1.4871,-1.4835,-1.492,-1.4929,-1.4965,-1.4988,-1.4992,-1.4989,-1.4993,-1.4993,-1.5204,-1.5205,0,0,-1.4785,-1.4801,-1.4843,-1.4855,-1.4844,-1.4833,-1.4838,-1.4925,-1.4951,-1.4988,-1.4994,-1.4991,-1.4994,-1.4995,-1.5202,-1.5204,0,0,0,-1.4778,-1.4799,-1.4807,-1.485,-1.4863,-1.4835,-1.4841,-1.4947,-1.4949,-1.4995,-1.4992,-1.4994,-1.4996,-1.5201,-1.5203,-1.5288,0,0,0,-1.4775,-1.4795,-1.4806,-1.4817,-1.4861,-1.4906,-1.4861,-1.4943,-1.4952,-1.4991,-1.4994,-1.4997,-1.5199,-1.5202,-1.5283,-1.5327,0,0,0,-1.4774,-1.4795,-1.4809,-1.4817,-1.485,-1.4904,-1.491,-1.4944,-1.495,-1.4992,-1.4997,-1.5198,-1.5202,-1.5278,-1.5319,-1.539,0,0,0,-1.4778,-1.4881,-1.481,-1.4925,-1.485,-1.4955,-1.491,-1.4987,-1.5033,-1.4995,-1.52,-1.5203,-1.5276,-1.5313,-1.5385,-1.5456,-1.5486,0,0,-1.4918,-1.4899,-1.4965,-1.4903,-1.5027,-1.4942,-1.5078,-1.5103,-1.5091,-1.5167,-1.5172,-1.5284,-1.5318,-1.5389,-1.5642,-1.5667,0,0,0,-1.5015,-1.5063,-1.5092,-1.5137,-1.5159,-1.5183,-1.5186,-1.5195,-1.5259,-1.5133,-1.5327,-1.5346,-1.5387,-1.5421,-1.5441,-1.5477,-1.5218,-1.5217,-1.5217,-1.524,-1.5219,-1.5328,-1.5317,-1.5361,-1.5363,-1.5397,-1.5411,-1.5376,-1.5422,-1.5446,-1.5602,-1.5642,-1.5657,-1.5695,-1.5478,-1.5478,-1.5478,-1.5479,-1.5446,-1.5513,-1.5465,-1.5554,-1.5531,-1.5605,-1.5611,-1.5584,-1.5651,-1.5582,-1.5617,-1.5548,-1.5684,-1.5716,-1.5485,-1.5484,-1.5483,-1.5482,-1.5482,-1.5595,-1.5624,-1.5633,-1.5697,-1.5748,-1.5731,-1.5798,-1.5774,-1.5752,-1.5786,-1.5811,-1.581,-1.5809,-1.5798,-1.5799,-1.58,-1.58,-1.58,-1.5801,-1.5748,-1.5756,-1.5815,-1.5848,-1.5874,-1.5906,-1.5908,-1.5933,-1.5955,-1.5933,-1.5933,-1.5897,-1.57,-1.5654,-1.5809,-1.5808,-1.5807,-1.5806,-1.5805,-1.5974,-1.5919,-1.6011,-1.6038,-1.6074,-1.6128,-1.6095,-1.6149,-1.6165,-1.62,-1.6154,-1.6011,-1.5991,-1.5974,-1.5936,-1.6156,-1.6156,-1.6156,-1.6156,-1.6103,-1.6089,-1.6179,-1.6224,-1.6264,-1.6243,-1.635,-1.6352,-1.6347,-1.6356,-1.6319,-1.6265,-1.6249,-1.6238,-1.6216,-1.618,-1.6457,-1.6458,-1.6458,-1.6243,-1.6231,-1.6328,-1.6321,-1.6348,-1.6371,-1.6472,-1.6525,-1.6506,-1.647,-1.6364,-1.6351,-1.6263,-1.6235,-1.6201,-1.6167,-1.6101,0,0]},{"header":{"parameterUnit":"m.s-1","parameterCategory":1,"la1":30.2992,"la2":30.254,"lo1":-89.0895,"lo2":-89.0443,"dy":0.0025,"dx":0.0025,"nx":19,"ny":19,"refTime":"2026-05-01T03:00:00:Z","depth":0,"parameterNumber":3,"parameterNumberName":"V-component_of_WINDS"},"data":[0,0,0,0.0164,0.0164,0.013,0.0129,0.0114,0.0114,0,0,0,0,0,0,0,0,0,0,0,0.0191,0.0191,0.0165,0.0164,0.013,0.0129,0.0114,0.0114,0,0,0,0,0,0,0,0,0,0,0,0.0191,0.0191,0.0192,0.0164,0.013,0.0129,0.0114,0.013,0,0,0,0,0,0,0,0,0,0,0.0159,0.0198,0.0191,0.0192,0.0164,0.013,0.0129,0.0131,0.0129,0.0142,0,0.0156,0,0.0135,0.0115,0.0115,0,0,0,0.0153,0.02,0.0176,0.0192,0.0164,0.013,0.0142,0.013,0.0128,0.0141,0.0156,0.0154,0.0135,0.0115,0.0115,0.0224,0.0225,0,0,0.0154,0.0193,0.0177,0.0176,0.0181,0.0143,0.0141,0.0128,0.0148,0.0155,0.0153,0.0135,0.0115,0.0115,0.0223,0.0224,0,0,0,0.0168,0.0195,0.0171,0.0177,0.0169,0.0142,0.014,0.0148,0.0137,0.0153,0.0135,0.0115,0.0116,0.0222,0.0223,0.0313,0,0,0,0.0168,0.0203,0.0172,0.0196,0.0169,0.0158,0.0161,0.0138,0.0135,0.0135,0.0115,0.0116,0.022,0.0223,0.0308,0.0349,0,0,0,0.0188,0.0205,0.0205,0.0198,0.0185,0.0157,0.0144,0.0137,0.0125,0.0115,0.0116,0.022,0.0222,0.0303,0.0341,0.0389,0,0,0,0.022,0.0285,0.0207,0.0274,0.0185,0.0212,0.0144,0.0162,0.0165,0.0115,0.0221,0.0223,0.0302,0.0336,0.0384,0.0436,0.0461,0,0,0.0324,0.0299,0.0335,0.0265,0.0315,0.0214,0.0279,0.0244,0.0209,0.0221,0.0224,0.0309,0.0341,0.0388,0.0588,0.0609,0,0,0,0.0382,0.0408,0.0413,0.0417,0.0392,0.0375,0.0327,0.0314,0.0323,0.0223,0.0338,0.0356,0.0382,0.0405,0.0422,0.0443,0.0235,0.0235,0.0235,0.0586,0.0536,0.0593,0.0539,0.0544,0.0494,0.0494,0.0469,0.0418,0.0447,0.045,0.0577,0.0606,0.0618,0.064,0.0473,0.0473,0.0474,0.0474,0.0735,0.0764,0.0695,0.0725,0.0673,0.0698,0.0654,0.0617,0.0634,0.057,0.0591,0.0525,0.0642,0.0659,0.048,0.0479,0.0478,0.0478,0.0477,0.0862,0.0868,0.0852,0.0853,0.086,0.0804,0.0824,0.0776,0.0731,0.0752,0.075,0.0749,0.0742,0.0754,0.0755,0.0755,0.0756,0.0756,0.0756,0.1001,0.098,0.1001,0.0982,0.0979,0.0969,0.0921,0.0917,0.0901,0.0865,0.0864,0.0811,0.0662,0.0626,0.0763,0.0762,0.0761,0.076,0.076,0.117,0.1125,0.1158,0.1155,0.1129,0.1141,0.1079,0.1076,0.1066,0.1078,0.1021,0.0918,0.089,0.0876,0.0845,0.103,0.103,0.103,0.103,0.1278,0.1259,0.1283,0.1282,0.1275,0.1224,0.1266,0.1231,0.1187,0.1178,0.1145,0.11,0.1088,0.1067,0.1049,0.102,0.1245,0.1245,0.1245,0.138,0.1358,0.1402,0.1357,0.1334,0.1316,0.1354,0.1357,0.1298,0.1253,0.1171,0.1162,0.109,0.1069,0.1021,0.0994,0.0939,0,0]}]]